SCP
2 2 0 0 0 0 0 0 0 0 0 0 0 0 0 0 0 0 0 0 0 0 0 0 0 0 0 1 1 1 1 1 1 1 1 1 1 1 0 0 0 0 0
2 1 2 1 1 0 0 0 0 0 0 0 0 0 0 0 0 0 0 0 0 0 0 0 0 0 0 0 0 0 1 1 1 1 1 1 1 1 0 0 0 0 0
3 3 2 2 1 1 1 0 0 1 1 0 0 1 1 1 1 1 1 1 0 0 0 0 0 0 0 0 0 1 0 0 0 0 0 1 1 1 1 0 0 0 0
3 5 3 2 2 4 2 3 2 1 1 0 0 1 1 1 1 1 1 1 1 1 1 0 1 1 1 1 1 1 1 1 1 0 0 1 1 1 1 1 0 0 0
3 6 3 2 2 4 3 3 3 1 1 1 1 1 1 1 2 1 1 1 1 1 1 1 1 1 1 1 1 1 1 1 1 1 1 1 1 1 1 1 1 1 0
5 6 3 3 3 2 2 2 1 1 1 1 1 1 1 2 2 4 3 2 1 2 2 2 1 1 1 1 1 2 1 2 1 1 1 1 1 1 1 1 1 1 0
6 4 6 3 5 2 3 4 3 2 1 2 2 2 2 4 4 3 3 2 1 2 2 2 3 3 3 3 3 2 2 2 1 1 1 1 1 1 1 1 1 1 1
4 4 2 3 3 3 2 4 2 1 2 2 2 3 2 2 6 4 2 2 2 3 4 3 6 5 3 3 3 1 1 1 1 1 1 1 1 1 1 1 1 0 0
5 4 3 2 3 3 2 2 5 2 2 2 3 3 3 2 6 5 3 3 3 4 5 4 3 3 2 2 3 1 1 0 0 1 1 1 1 1 1 1 1 0 0
6 6 6 4 3 4 2 4 3 3 4 3 2 2 6 7 4 4 5 3 4 4 4 4 3 3 4 4 3 1 0 -0 1 1 1 1 2 2 1 0 0 0 0
6 6 8 7 6 7 5 6 3 7 5 4 7 7 5 3 2 2 2 1 2 1 2 2 0 0 3 1 1 1 0 0 0 0 0 1 1 1 0 0 0 0 0
9 6 8 9 9 6 10 7 8 7 6 4 3 4 5 3 1 2 2 1 1 1 0 0 0 0 0 0 0 1 0 0 0 0 0 0 0 0 0 0 0 0 0
8 8 9 11 11 10 7 9 8 9 8 6 4 5 4 3 2 1 2 1 0 0 0 0 0 0 0 0 0 0 0 0 0 0 0 0 -0 0 0 0 0 0 0
7 7 8 8 10 7 8 11 10 10 8 7 6 5 4 3 2 2 1 0 0 0 0 0 0 0 0 0 0 0 0 0 0 0 0 -0 0 0 0 0 0 0 0
5 3 4 1 0 3 6 10 9 9 8 8 6 5 4 3 2 1 2 1 1 0 0 0 0 0 0 0 0 0 0 0 0 0 0 0 0 0 0 0 0 0 0
2 0 1 0 0 0 2 5 7 7 6 6 4 3 3 3 3 2 2 2 2 1 0 0 0 0 0 1 0 0 0 0 0 0 0 0 0 0 0 0 0 0 0
0 0 0 0 0 0 2 2 1 4 4 3 3 3 3 3 3 3 2 2 2 1 0 0 0 0 0 0 0 0 0 1 0 0 0 0 0 0 0 0 0 0 0
0 0 0 0 0 0 0 1 0 1 2 3 2 2 2 3 2 2 2 1 1 1 1 0 0 0 0 0 0 0 0 1 0 0 0 0 0 0 0 0 0 0 0
0 0 0 0 0 -0 -1 -0 -0 0 1 3 3 2 1 1 2 1 1 1 1 1 1 1 0 0 0 1 1 1 0 0 1 0 0 0 0 0 0 0 0 0 0
0 0 0 0 0 0 0 0 1 2 2 2 2 2 2 1 1 1 1 1 1 1 0 0 0 0 0 0 1 1 0 0 0 0 0 0 0 0 0 0 0 0 0
0 0 -0 0 1 0 1 1 2 3 3 3 2 1 1 0 0 0 0 0 0 0 0 0 0 0 0 0 0 0 0 0 0 0 0 0 0 0 0 0 0 0 0
2 1 0 1 1 1 1 1 3 3 3 2 2 0 0 0 0 0 0 0 0 0 0 0 0 0 -0 -0 0 0 0 0 0 0 0 0 0 0 0 0 0 0 0
0 1 1 2 2 2 1 1 2 3 2 2 1 1 0 0 0 0 0 0 0 0 0 0 0 0 0 0 0 -0 0 0 0 0 0 0 0 0 0 0 0 0 0
0 0 1 3 4 3 0 0 1 3 2 1 1 1 0 0 0 0 0 0 0 0 0 0 0 0 0 0 0 0 0 0 0 0 0 0 0 0 0 0 0 0 0
0 1 0 1 2 0 0 0 1 2 2 1 1 0 0 0 0 0 0 0 0 0 0 0 -0 0 0 0 0 0 0 0 0 0 0 0 -0 0 0 0 0 -0 -0
0 1 2 1 1 1 0 0 1 1 1 1 1 0 0 0 0 0 0 0 -0 0 0 0 -0 -0 -0 -0 0 0 0 0 0 0 -0 0 0 0 0 0 0 0 0
Wind_Speed_500mb
53 54 46 41 37 42 42 40 32 24 24 26 26 22 22 22 20 27 22 22 24 16 13 11 12 14 16 13 12 12 13 16 19 20 22 27 28 28 31 31 31 31 31
63 56 59 53 44 37 39 30 37 35 36 31 21 18 21 27 22 20 20 24 26 19 15 13 11 12 10 8 2 4 10 13 17 20 25 26 28 29 29 33 33 34 34
69 66 65 62 54 43 43 41 35 42 44 33 21 24 27 23 28 36 37 35 30 25 20 17 13 10 6 3 3 5 14 14 17 22 25 27 27 29 32 33 34 37 37
77 78 78 69 68 54 50 49 50 52 49 43 38 32 28 23 21 24 30 38 29 32 29 25 21 16 11 5 2 9 13 18 21 22 27 29 27 30 30 32 34 37 39
72 81 84 78 75 72 68 69 70 64 52 39 31 34 38 34 29 31 33 26 28 40 40 35 27 25 18 10 14 10 17 25 26 27 34 36 35 35 34 34 34 34 39
80 86 83 83 77 80 80 77 75 67 58 45 44 37 42 30 32 33 36 42 43 36 41 36 31 32 26 25 30 27 26 26 28 30 36 40 42 41 41 38 39 37 39
84 82 91 85 76 77 80 76 71 59 61 52 50 47 45 39 48 50 51 48 34 34 37 31 36 36 29 29 28 28 32 33 47 43 38 39 44 45 47 44 42 40 41
89 85 83 91 95 83 81 79 71 65 67 62 65 59 44 50 50 52 38 42 39 36 31 40 48 50 46 44 40 38 45 56 53 56 53 52 57 53 54 51 46 42 44
91 89 83 79 90 97 94 87 78 77 73 71 61 46 21 27 49 51 42 39 42 43 46 52 50 48 44 44 50 50 64 63 65 60 61 60 60 57 57 56 52 45 46
87 85 87 84 78 85 89 91 88 82 75 61 62 69 51 27 30 27 42 41 46 46 47 48 46 40 43 49 58 68 65 55 51 55 61 60 57 52 57 58 54 48 46
91 95 93 95 88 91 92 86 78 88 87 80 52 63 69 61 51 37 40 49 52 51 49 44 51 64 48 51 66 64 58 59 60 57 63 57 58 62 59 57 47 48 46
94 102 107 112 102 93 89 83 85 79 82 73 70 62 72 71 67 66 62 55 56 57 50 59 71 67 80 72 57 60 57 74 62 69 67 66 57 54 48 44 43 44 44
102 111 112 111 109 106 102 86 82 86 78 68 59 73 73 71 66 60 65 55 46 56 64 74 83 51 52 52 52 49 58 61 67 58 57 46 51 43 37 36 40 40 44
108 104 102 108 109 113 102 104 89 81 74 70 65 63 62 67 70 66 63 52 53 52 53 75 47 47 48 54 39 46 60 53 48 41 37 42 41 31 31 36 37 41 44
102 96 100 101 71 83 94 90 80 70 67 62 60 63 67 66 62 65 61 62 51 43 41 55 51 44 30 28 35 50 54 43 43 40 39 32 31 30 32 34 35 37 35
92 70 58 109 129 128 71 72 71 65 61 60 60 63 63 69 67 60 55 52 44 50 46 58 52 43 39 47 55 57 49 39 38 36 30 31 31 28 34 30 27 30 32
76 39 42 32 87 46 59 63 59 56 51 51 54 52 51 50 49 45 51 47 46 46 54 53 43 42 41 45 51 43 39 42 48 25 25 20 26 30 27 24 23 27 30
83 57 44 38 35 60 42 39 55 49 51 55 50 52 54 51 48 45 49 47 40 36 31 38 46 53 55 53 54 45 31 38 37 22 20 23 26 26 24 23 25 27 30
57 60 46 24 11 70 79 71 67 61 53 54 51 51 47 43 41 31 32 27 25 22 25 34 47 47 42 45 48 47 41 45 48 28 28 29 28 26 27 26 27 29 28
33 38 41 49 93 93 73 69 59 50 41 38 39 44 33 31 20 17 23 29 32 36 40 44 47 44 45 50 53 51 52 47 48 32 37 34 34 35 32 31 29 30 26
54 42 46 58 57 58 63 57 52 44 43 40 34 35 38 33 26 27 29 31 31 33 36 33 36 42 44 36 36 43 46 50 38 38 41 37 22 28 30 25 22 22 21
41 46 63 61 63 65 61 61 50 48 49 51 47 39 21 14 15 19 25 34 43 51 50 44 46 60 60 60 47 42 46 48 45 45 40 28 28 36 20 20 6 8 12
57 49 61 63 62 60 58 58 59 56 54 42 34 30 24 9 5 7 13 15 21 22 23 26 36 39 43 45 49 55 57 47 44 39 31 20 27 30 23 20 13 14 12
59 51 38 60 58 63 56 64 68 65 55 43 39 34 21 17 14 8 11 21 21 22 25 29 36 39 41 45 48 49 47 41 42 28 26 24 21 23 31 23 19 15 14
60 40 69 32 55 48 51 69 69 66 58 49 38 24 21 19 15 14 19 21 27 35 31 35 34 41 35 43 52 54 46 40 32 35 35 31 37 28 29 21 18 12 12
76 51 49 58 24 45 59 65 74 66 55 48 35 29 29 27 16 13 16 20 23 26 35 40 42 48 48 53 49 45 36 33 26 34 33 44 32 21 18 20 10 5 12
Wind_Direction_500mb
213 208 216 224 237 229 224 229 232 236 244 240 247 242 258 244 240 237 245 261 279 283 295 313 321 327 321 322 312 317 347 337 322 322 317 297 286 281 271 272 274 275 276
212 218 214 208 226 233 226 223 221 220 239 239 238 268 248 235 237 254 247 267 273 283 290 284 297 320 318 290 326 5 333 343 324 317 317 311 295 287 280 272 272 272 274
218 212 221 215 204 228 207 230 227 218 228 239 222 233 257 261 239 230 238 238 249 267 270 279 269 284 282 262 171 77 27 347 309 324 304 310 303 294 285 279 273 272 271
220 213 222 221 210 204 211 210 213 219 229 230 225 225 245 254 253 257 249 255 240 255 254 257 248 240 213 236 209 1 348 348 305 318 311 298 295 294 285 277 278 273 270
228 217 219 224 219 211 213 215 220 224 229 232 226 229 224 224 233 241 265 269 249 253 253 251 235 242 228 248 244 297 318 329 319 314 300 297 285 287 282 274 275 274 270
232 222 224 220 221 217 220 226 226 229 226 220 220 227 241 234 240 234 236 247 254 255 264 235 230 239 251 268 270 281 289 317 317 315 308 297 287 280 279 273 270 272 271
234 229 230 227 215 223 218 218 221 222 222 210 220 219 227 221 226 239 249 250 245 243 260 219 227 229 243 251 252 271 285 302 312 307 299 297 292 287 276 272 269 268 271
237 240 230 231 226 223 227 223 225 222 220 217 215 220 229 233 240 246 254 245 237 215 219 214 223 222 233 242 255 273 289 299 309 306 289 284 285 280 273 269 266 264 267
235 237 235 232 230 218 226 224 214 219 224 220 220 211 211 219 219 231 243 229 229 214 218 226 237 244 255 268 280 296 308 306 302 296 286 277 280 280 272 268 264 262 265
232 234 235 231 227 218 220 225 218 219 224 221 222 217 223 213 209 198 223 220 222 223 229 229 243 266 285 295 296 298 301 303 294 292 295 279 278 278 282 272 262 260 264
228 232 229 237 235 216 223 220 221 218 221 215 210 216 222 228 231 227 224 232 232 229 231 244 266 269 263 280 289 289 292 294 294 281 280 281 274 280 286 270 262 261 262
235 229 230 233 232 219 216 219 218 217 220 224 219 221 223 226 238 239 240 239 242 241 254 280 290 291 265 287 302 277 275 296 293 288 285 275 272 283 282 262 260 260 261
235 235 229 226 228 225 218 214 213 217 216 224 231 220 226 235 242 251 247 246 256 268 279 280 296 293 282 292 275 272 288 292 295 287 272 269 278 285 277 264 263 261 262
240 239 235 234 229 222 213 213 213 217 223 225 226 219 226 235 236 247 243 248 264 275 276 285 293 283 295 292 286 278 294 296 298 288 274 268 278 278 270 268 267 257 256
248 248 242 237 247 224 215 207 210 209 212 215 219 222 228 230 236 244 250 255 260 267 272 282 290 297 307 287 290 298 300 290 291 293 284 270 270 271 272 268 259 257 261
248 252 253 254 243 229 215 203 201 206 213 214 221 222 228 238 242 234 243 251 243 245 255 283 291 292 289 284 287 296 298 287 298 293 277 273 262 269 268 258 257 259 260
251 260 257 220 214 238 224 216 209 204 211 219 225 235 240 242 244 239 239 250 244 246 261 276 282 285 292 285 288 296 295 297 301 294 282 272 265 266 255 247 253 262 272
257 263 264 247 196 220 232 213 229 217 215 222 220 226 228 232 240 235 234 246 252 261 261 279 288 291 289 286 289 296 294 310 312 296 275 270 262 254 248 249 264 274 275
270 250 258 266 261 208 217 215 219 213 215 217 222 230 234 234 234 231 240 243 247 264 269 275 281 283 290 292 286 293 280 301 303 301 290 278 275 258 250 254 267 276 273
221 211 202 190 218 208 203 209 207 206 213 220 231 225 220 210 190 185 227 244 246 251 262 271 276 287 291 292 274 289 287 289 287 299 295 285 287 267 260 253 264 271 270
205 202 204 204 200 196 202 198 195 195 196 198 184 181 179 186 193 210 232 242 248 255 255 254 261 272 276 303 291 288 292 300 305 293 288 291 286 284 284 255 270 276 265
235 214 212 209 201 195 191 188 185 174 165 173 180 187 180 203 241 249 247 252 255 253 258 263 271 280 276 278 289 295 295 295 299 313 289 277 279 280 262 236 303 308 274
257 222 216 204 203 193 193 184 177 178 180 173 172 184 167 161 190 267 286 287 285 286 281 280 284 284 286 287 291 291 293 292 299 303 279 270 264 259 258 257 265 298 279
264 245 227 211 203 196 195 186 183 182 182 192 195 187 181 197 230 273 255 249 272 275 276 281 281 284 286 289 288 289 293 294 298 297 281 278 247 247 234 238 247 269 273
244 234 256 173 206 199 201 191 186 180 184 193 198 193 212 236 255 288 289 290 267 258 264 266 273 280 277 281 283 280 278 285 284 287 287 277 265 225 236 247 254 263 247
244 231 224 217 209 195 202 196 195 187 189 191 203 214 228 236 250 250 286 301 291 268 267 266 265 274 280 291 284 267 260 247 265 279 284 257 244 227 196 224 196 272 217
Wind_Speed_850mb
53 54 46 41 37 42 42 40 32 24 24 26 26 22 22 22 20 27 22 22 24 16 13 11 12 14 16 13 12 12 13 16 19 20 22 27 28 28 31 31 31 31 31
63 56 59 53 44 37 39 30 37 35 36 31 21 18 21 27 22 20 20 24 26 19 15 13 11 12 10 8 2 4 10 13 17 20 25 26 28 29 29 33 33 34 34
69 66 65 62 54 43 43 41 35 42 44 33 21 24 27 23 28 36 37 35 30 25 20 17 13 10 6 3 3 5 14 14 17 22 25 27 27 29 32 33 34 37 37
77 78 78 69 68 54 50 49 50 52 49 43 38 32 28 23 21 24 30 38 29 32 29 25 21 16 11 5 2 9 13 18 21 22 27 29 27 30 30 32 34 37 39
72 81 84 78 75 72 68 69 70 64 52 39 31 34 38 34 29 31 33 26 28 40 40 35 27 25 18 10 14 10 17 25 26 27 34 36 35 35 34 34 34 34 39
80 86 83 83 77 80 80 77 75 67 58 45 44 37 42 30 32 33 36 42 43 36 41 36 31 32 26 25 30 27 26 26 28 30 36 40 42 41 41 38 39 37 39
84 82 91 85 76 77 80 76 71 59 61 52 50 47 45 39 48 50 51 48 34 34 37 31 36 36 29 29 28 28 32 33 47 43 38 39 44 45 47 44 42 40 41
89 85 83 91 95 83 81 79 71 65 67 62 65 59 44 50 50 52 38 42 39 36 31 40 48 50 46 44 40 38 45 56 53 56 53 52 57 53 54 51 46 42 44
91 89 83 79 90 97 94 87 78 77 73 71 61 46 21 27 49 51 42 39 42 43 46 52 50 48 44 44 50 50 64 63 65 60 61 60 60 57 57 56 52 45 46
87 85 87 84 78 85 89 91 88 82 75 61 62 69 51 27 30 27 42 41 46 46 47 48 46 40 43 49 58 68 65 55 51 55 61 60 57 52 57 58 54 48 46
91 95 93 95 88 91 92 86 78 88 87 80 52 63 69 61 51 37 40 49 52 51 49 44 51 64 48 51 66 64 58 59 60 57 63 57 58 62 59 57 47 48 46
94 102 107 112 102 93 89 83 85 79 82 73 70 62 72 71 67 66 62 55 56 57 50 59 71 67 80 72 57 60 57 74 62 69 67 66 57 54 48 44 43 44 44
102 111 112 111 109 106 102 86 82 86 78 68 59 73 73 71 66 60 65 55 46 56 64 74 83 51 52 52 52 49 58 61 67 58 57 46 51 43 37 36 40 40 44
108 104 102 108 109 113 102 104 89 81 74 70 65 63 62 67 70 66 63 52 53 52 53 75 47 47 48 54 39 46 60 53 48 41 37 42 41 31 31 36 37 41 44
102 96 100 101 71 83 94 90 80 70 67 62 60 63 67 66 62 65 61 62 51 43 41 55 51 44 30 28 35 50 54 43 43 40 39 32 31 30 32 34 35 37 35
92 70 58 109 129 128 71 72 71 65 61 60 60 63 63 69 67 60 55 52 44 50 46 58 52 43 39 47 55 57 49 39 38 36 30 31 31 28 34 30 27 30 32
76 39 42 32 87 46 59 63 59 56 51 51 54 52 51 50 49 45 51 47 46 46 54 53 43 42 41 45 51 43 39 42 48 25 25 20 26 30 27 24 23 27 30
83 57 44 38 35 60 42 39 55 49 51 55 50 52 54 51 48 45 49 47 40 36 31 38 46 53 55 53 54 45 31 38 37 22 20 23 26 26 24 23 25 27 30
57 60 46 24 11 70 79 71 67 61 53 54 51 51 47 43 41 31 32 27 25 22 25 34 47 47 42 45 48 47 41 45 48 28 28 29 28 26 27 26 27 29 28
33 38 41 49 93 93 73 69 59 50 41 38 39 44 33 31 20 17 23 29 32 36 40 44 47 44 45 50 53 51 52 47 48 32 37 34 34 35 32 31 29 30 26
54 42 46 58 57 58 63 57 52 44 43 40 34 35 38 33 26 27 29 31 31 33 36 33 36 42 44 36 36 43 46 50 38 38 41 37 22 28 30 25 22 22 21
41 46 63 61 63 65 61 61 50 48 49 51 47 39 21 14 15 19 25 34 43 51 50 44 46 60 60 60 47 42 46 48 45 45 40 28 28 36 20 20 6 8 12
57 49 61 63 62 60 58 58 59 56 54 42 34 30 24 9 5 7 13 15 21 22 23 26 36 39 43 45 49 55 57 47 44 39 31 20 27 30 23 20 13 14 12
59 51 38 60 58 63 56 64 68 65 55 43 39 34 21 17 14 8 11 21 21 22 25 29 36 39 41 45 48 49 47 41 42 28 26 24 21 23 31 23 19 15 14
60 40 69 32 55 48 51 69 69 66 58 49 38 24 21 19 15 14 19 21 27 35 31 35 34 41 35 43 52 54 46 40 32 35 35 31 37 28 29 21 18 12 12
76 51 49 58 24 45 59 65 74 66 55 48 35 29 29 27 16 13 16 20 23 26 35 40 42 48 48 53 49 45 36 33 26 34 33 44 32 21 18 20 10 5 12
Wind_Direction_850mb
213 208 216 224 237 229 224 229 232 236 244 240 247 242 258 244 240 237 245 261 279 283 295 313 321 327 321 322 312 317 347 337 322 322 317 297 286 281 271 272 274 275 276
212 218 214 208 226 233 226 223 221 220 239 239 238 268 248 235 237 254 247 267 273 283 290 284 297 320 318 290 326 5 333 343 324 317 317 311 295 287 280 272 272 272 274
218 212 221 215 204 228 207 230 227 218 228 239 222 233 257 261 239 230 238 238 249 267 270 279 269 284 282 262 171 77 27 347 309 324 304 310 303 294 285 279 273 272 271
220 213 222 221 210 204 211 210 213 219 229 230 225 225 245 254 253 257 249 255 240 255 254 257 248 240 213 236 209 1 348 348 305 318 311 298 295 294 285 277 278 273 270
228 217 219 224 219 211 213 215 220 224 229 232 226 229 224 224 233 241 265 269 249 253 253 251 235 242 228 248 244 297 318 329 319 314 300 297 285 287 282 274 275 274 270
232 222 224 220 221 217 220 226 226 229 226 220 220 227 241 234 240 234 236 247 254 255 264 235 230 239 251 268 270 281 289 317 317 315 308 297 287 280 279 273 270 272 271
234 229 230 227 215 223 218 218 221 222 222 210 220 219 227 221 226 239 249 250 245 243 260 219 227 229 243 251 252 271 285 302 312 307 299 297 292 287 276 272 269 268 271
237 240 230 231 226 223 227 223 225 222 220 217 215 220 229 233 240 246 254 245 237 215 219 214 223 222 233 242 255 273 289 299 309 306 289 284 285 280 273 269 266 264 267
235 237 235 232 230 218 226 224 214 219 224 220 220 211 211 219 219 231 243 229 229 214 218 226 237 244 255 268 280 296 308 306 302 296 286 277 280 280 272 268 264 262 265
232 234 235 231 227 218 220 225 218 219 224 221 222 217 223 213 209 198 223 220 222 223 229 229 243 266 285 295 296 298 301 303 294 292 295 279 278 278 282 272 262 260 264
228 232 229 237 235 216 223 220 221 218 221 215 210 216 222 228 231 227 224 232 232 229 231 244 266 269 263 280 289 289 292 294 294 281 280 281 274 280 286 270 262 261 262
235 229 230 233 232 219 216 219 218 217 220 224 219 221 223 226 238 239 240 239 242 241 254 280 290 291 265 287 302 277 275 296 293 288 285 275 272 283 282 262 260 260 261
235 235 229 226 228 225 218 214 213 217 216 224 231 220 226 235 242 251 247 246 256 268 279 280 296 293 282 292 275 272 288 292 295 287 272 269 278 285 277 264 263 261 262
240 239 235 234 229 222 213 213 213 217 223 225 226 219 226 235 236 247 243 248 264 275 276 285 293 283 295 292 286 278 294 296 298 288 274 268 278 278 270 268 267 257 256
248 248 242 237 247 224 215 207 210 209 212 215 219 222 228 230 236 244 250 255 260 267 272 282 290 297 307 287 290 298 300 290 291 293 284 270 270 271 272 268 259 257 261
248 252 253 254 243 229 215 203 201 206 213 214 221 222 228 238 242 234 243 251 243 245 255 283 291 292 289 284 287 296 298 287 298 293 277 273 262 269 268 258 257 259 260
251 260 257 220 214 238 224 216 209 204 211 219 225 235 240 242 244 239 239 250 244 246 261 276 282 285 292 285 288 296 295 297 301 294 282 272 265 266 255 247 253 262 272
257 263 264 247 196 220 232 213 229 217 215 222 220 226 228 232 240 235 234 246 252 261 261 279 288 291 289 286 289 296 294 310 312 296 275 270 262 254 248 249 264 274 275
270 250 258 266 261 208 217 215 219 213 215 217 222 230 234 234 234 231 240 243 247 264 269 275 281 283 290 292 286 293 280 301 303 301 290 278 275 258 250 254 267 276 273
221 211 202 190 218 208 203 209 207 206 213 220 231 225 220 210 190 185 227 244 246 251 262 271 276 287 291 292 274 289 287 289 287 299 295 285 287 267 260 253 264 271 270
205 202 204 204 200 196 202 198 195 195 196 198 184 181 179 186 193 210 232 242 248 255 255 254 261 272 276 303 291 288 292 300 305 293 288 291 286 284 284 255 270 276 265
235 214 212 209 201 195 191 188 185 174 165 173 180 187 180 203 241 249 247 252 255 253 258 263 271 280 276 278 289 295 295 295 299 313 289 277 279 280 262 236 303 308 274
257 222 216 204 203 193 193 184 177 178 180 173 172 184 167 161 190 267 286 287 285 286 281 280 284 284 286 287 291 291 293 292 299 303 279 270 264 259 258 257 265 298 279
264 245 227 211 203 196 195 186 183 182 182 192 195 187 181 197 230 273 255 249 272 275 276 281 281 284 286 289 288 289 293 294 298 297 281 278 247 247 234 238 247 269 273
244 234 256 173 206 199 201 191 186 180 184 193 198 193 212 236 255 288 289 290 267 258 264 266 273 280 277 281 283 280 278 285 284 287 287 277 265 225 236 247 254 263 247
244 231 224 217 209 195 202 196 195 187 189 191 203 214 228 236 250 250 286 301 291 268 267 266 265 274 280 291 284 267 260 247 265 279 284 257 244 227 196 224 196 272 217